• Em Portugal
  • Lista de países
  • Para 7 dias
  • Temperatura da água
  • Mapas de satélite
  • Mapa do tempo
  • Widgets de tempo
  • user-avatar
    Iniciar Sessão

    Previsão horária em Kobyle

    Hoje, 21 Abril, Sábado

    Tempo Temperatura Precipitação Vento Pressão Humidade
    00:00 +10°C° 0 mm 2 m/s 745 mmHg 67%
    01:00 +10°C° 0 mm 2 m/s 744 mmHg 67%
    02:00 +9°C° 0 mm 2 m/s 744 mmHg 66%
    03:00 +9°C° 0 mm 2 m/s 744 mmHg 66%
    04:00 +9°C° 0 mm 2 m/s 743 mmHg 65%
    05:00 +11°C° 0 mm 3 m/s 743 mmHg 62%
    06:00 +13°C° 0 mm 3 m/s 743 mmHg 59%
    07:00 +15°C° 0 mm 4 m/s 743 mmHg 54%
    08:00 +18°C° 0 mm 4 m/s 742 mmHg 51%
    09:00 +20°C° 0 mm 5 m/s 742 mmHg 47%
    10:00 +22°C° 0 mm 5 m/s 742 mmHg 44%
    11:00 +23°C° 0 mm 5 m/s 742 mmHg 43%
    12:00 +25°C° 0 mm 5 m/s 741 mmHg 42%
    13:00 +27°C° 0 mm 5 m/s 741 mmHg 41%
    14:00 +27°C° 0 mm 5 m/s 741 mmHg 44%
    15:00 +26°C° 0 mm 4 m/s 740 mmHg 46%
    16:00 +26°C° 0 mm 4 m/s 740 mmHg 49%
    17:00 +24°C° 0 mm 3 m/s 740 mmHg 56%
    18:00 +21°C° 0 mm 3 m/s 740 mmHg 62%
    19:00 +19°C° 0 mm 3 m/s 740 mmHg 69%
    20:00 +18°C° 0,1 mm 2 m/s 741 mmHg 72%
    21:00 +17°C° 0,1 mm 2 m/s 741 mmHg 74%
    22:00 +16°C° 0,1 mm 1 m/s 741 mmHg 77%
    23:00 +15°C° 0 mm 1 m/s 741 mmHg 79%

    Amanhã, 22 Abril, Domingo

    Tempo Temperatura Precipitação Vento Pressão Humidade
    00:00 +15°C° 0 mm 1 m/s 741 mmHg 80%
    01:00 +14°C° 0 mm 1 m/s 742 mmHg 82%
    02:00 +13°C° 0 mm 1 m/s 742 mmHg 83%
    03:00 +12°C° 0 mm 1 m/s 741 mmHg 84%
    04:00 +11°C° 0 mm 1 m/s 741 mmHg 85%
    05:00 +12°C° 0 mm 1 m/s 741 mmHg 80%
    06:00 +13°C° 0 mm 1 m/s 742 mmHg 75%
    07:00 +14°C° 0 mm 1 m/s 742 mmHg 69%
    08:00 +16°C° 0 mm 2 m/s 742 mmHg 61%
    09:00 +17°C° 0 mm 2 m/s 742 mmHg 53%
    10:00 +18°C° 0 mm 3 m/s 741 mmHg 46%
    11:00 +19°C° 0 mm 3 m/s 741 mmHg 44%
    12:00 +20°C° 0 mm 3 m/s 741 mmHg 42%
    13:00 +21°C° 0 mm 4 m/s 741 mmHg 40%
    14:00 +20°C° 0 mm 3 m/s 741 mmHg 40%
    15:00 +20°C° 0 mm 3 m/s 740 mmHg 41%
    16:00 +20°C° 0 mm 3 m/s 740 mmHg 41%
    17:00 +18°C° 0 mm 2 m/s 740 mmHg 47%
    18:00 +16°C° 0 mm 2 m/s 740 mmHg 52%
    19:00 +13°C° 0 mm 1 m/s 740 mmHg 58%
    20:00 +13°C° 0 mm 1 m/s 740 mmHg 60%
    21:00 +12°C° 0 mm 1 m/s 740 mmHg 62%
    22:00 +10°C° 0 mm 0 m/s 740 mmHg 64%
    23:00 +10°C° 0 mm 0 m/s 740 mmHg 65%

    Depois de amanhã, 23 Abril, Segunda-feira

    Tempo Temperatura Precipitação Vento Pressão Humidade
    00:00 +9°C° 0 mm 0 m/s 740 mmHg 67%
    01:00 +9°C° 0 mm 0 m/s 740 mmHg 68%
    02:00 +8°C° 0 mm 0 m/s 740 mmHg 69%
    03:00 +8°C° 0 mm 0 m/s 740 mmHg 70%
    04:00 +8°C° 0 mm 0 m/s 740 mmHg 71%
    05:00 +10°C° 0 mm 0 m/s 740 mmHg 67%
    06:00 +11°C° 0 mm 0 m/s 740 mmHg 62%
    07:00 +14°C° 0 mm 1 m/s 740 mmHg 58%
    08:00 +16°C° 0 mm 1 m/s 740 mmHg 53%
    09:00 +19°C° 0 mm 1 m/s 740 mmHg 48%
    10:00 +21°C° 0 mm 1 m/s 740 mmHg 44%
    11:00 +22°C° 0 mm 1 m/s 740 mmHg 42%
    12:00 +24°C° 0 mm 1 m/s 739 mmHg 41%
    13:00 +25°C° 0 mm 1 m/s 739 mmHg 39%
    14:00 +24°C° 0 mm 1 m/s 738 mmHg 43%
    15:00 +24°C° 0 mm 1 m/s 738 mmHg 46%
    16:00 +24°C° 0 mm 2 m/s 738 mmHg 50%
    17:00 +21°C° 1 mm 2 m/s 738 mmHg 61%
    18:00 +19°C° 1 mm 2 m/s 737 mmHg 72%
    19:00 +17°C° 1 mm 2 m/s 737 mmHg 82%
    20:00 +17°C° 1,3 mm 3 m/s 737 mmHg 86%
    21:00 +16°C° 1,3 mm 3 m/s 737 mmHg 89%
    22:00 +16°C° 1,3 mm 3 m/s 737 mmHg 92%
    23:00 +16°C° 0,7 mm 3 m/s 738 mmHg 92%

    24 Abril, Terça-feira

    Tempo Temperatura Precipitação Vento Pressão Humidade
    00:00 +16°C° 0,7 mm 3 m/s 738 mmHg 93%
    01:00 +14°C° 0,7 mm 4 m/s 738 mmHg 93%
    02:00 +14°C° 0,2 mm 4 m/s 738 mmHg 93%
    03:00 +14°C° 0,2 mm 4 m/s 739 mmHg 94%
    04:00 +13°C° 0,2 mm 4 m/s 739 mmHg 94%
    05:00 +13°C° 0 mm 4 m/s 740 mmHg 90%
    06:00 +13°C° 0 mm 3 m/s 740 mmHg 86%
    07:00 +13°C° 0 mm 3 m/s 741 mmHg 82%
    08:00 +14°C° 0,1 mm 3 m/s 741 mmHg 77%
    09:00 +15°C° 0,1 mm 4 m/s 741 mmHg 73%
    10:00 +15°C° 0,1 mm 4 m/s 741 mmHg 68%
    11:00 +17°C° 0,1 mm 4 m/s 741 mmHg 64%
    12:00 +18°C° 0,1 mm 4 m/s 741 mmHg 59%
    13:00 +19°C° 0,1 mm 5 m/s 741 mmHg 54%
    14:00 +19°C° 0 mm 5 m/s 741 mmHg 53%
    15:00 +19°C° 0 mm 4 m/s 741 mmHg 53%
    16:00 +19°C° 0 mm 4 m/s 740 mmHg 52%
    17:00 +17°C° 0 mm 3 m/s 740 mmHg 58%
    18:00 +15°C° 0 mm 2 m/s 740 mmHg 65%
    19:00 +14°C° 0 mm 1 m/s 740 mmHg 71%
    20:00 +13°C° 0 mm 1 m/s 741 mmHg 72%
    21:00 +13°C° 0 mm 1 m/s 741 mmHg 72%
    22:00 +13°C° 0 mm 2 m/s 741 mmHg 73%
    23:00 +12°C° 0 mm 2 m/s 741 mmHg 73%

    25 Abril, Quarta-feira

    Tempo Temperatura Precipitação Vento Pressão Humidade
    00:00 +12°C° 0 mm 2 m/s 741 mmHg 73%
    01:00 +12°C° 0 mm 2 m/s 741 mmHg 74%
    02:00 +12°C° 0 mm 2 m/s 741 mmHg 75%
    03:00 +12°C° 0 mm 2 m/s 740 mmHg 75%
    04:00 +12°C° 0 mm 2 m/s 740 mmHg 76%
    05:00 +13°C° 0 mm 2 m/s 740 mmHg 73%
    06:00 +14°C° 0 mm 2 m/s 740 mmHg 71%
    07:00 +16°C° 0 mm 2 m/s 740 mmHg 68%
    08:00 +18°C° 0 mm 3 m/s 740 mmHg 62%
    09:00 +20°C° 0 mm 3 m/s 740 mmHg 56%
    10:00 +22°C° 0 mm 3 m/s 740 mmHg 50%
    11:00 +23°C° 0 mm 4 m/s 740 mmHg 48%
    12:00 +25°C° 0 mm 4 m/s 740 mmHg 47%
    13:00 +25°C° 0 mm 4 m/s 739 mmHg 45%
    14:00 +26°C° 0 mm 4 m/s 739 mmHg 46%
    15:00 +26°C° 0 mm 4 m/s 738 mmHg 47%
    16:00 +26°C° 0 mm 3 m/s 738 mmHg 48%
    17:00 +24°C° 0 mm 3 m/s 738 mmHg 54%
    18:00 +21°C° 0 mm 3 m/s 737 mmHg 60%
    19:00 +19°C° 0 mm 2 m/s 737 mmHg 67%
    20:00 +18°C° 0 mm 3 m/s 737 mmHg 69%
    21:00 +18°C° 0 mm 3 m/s 737 mmHg 72%
    22:00 +18°C° 0 mm 4 m/s 737 mmHg 75%
    23:00 +17°C° 0,1 mm 4 m/s 737 mmHg 76%

    26 Abril, Quinta-feira

    Tempo Temperatura Precipitação Vento Pressão Humidade
    00:00 +17°C° 0,1 mm 4 m/s 737 mmHg 77%
    01:00 +17°C° 0,1 mm 4 m/s 737 mmHg 78%
    02:00 +17°C° 0,1 mm 4 m/s 737 mmHg 80%
    03:00 +17°C° 0,1 mm 4 m/s 737 mmHg 81%
    04:00 +16°C° 0,1 mm 3 m/s 737 mmHg 83%
    05:00 +17°C° 0,1 mm 4 m/s 737 mmHg 83%
    06:00 +17°C° 0,1 mm 4 m/s 738 mmHg 83%
    07:00 +17°C° 0,1 mm 4 m/s 738 mmHg 84%
    08:00 +18°C° 0,3 mm 3 m/s 738 mmHg 82%
    09:00 +18°C° 0,3 mm 3 m/s 738 mmHg 81%
    10:00 +19°C° 0,3 mm 2 m/s 738 mmHg 79%
    11:00 +20°C° 0,1 mm 2 m/s 738 mmHg 76%
    12:00 +20°C° 0,1 mm 2 m/s 738 mmHg 73%
    13:00 +21°C° 0,1 mm 2 m/s 738 mmHg 70%
    14:00 +21°C° 0,9 mm 2 m/s 737 mmHg 73%
    15:00 +20°C° 0,9 mm 2 m/s 737 mmHg 76%
    16:00 +20°C° 0,9 mm 2 m/s 737 mmHg 79%
    17:00 +18°C° 1,2 mm 2 m/s 737 mmHg 83%
    18:00 +17°C° 1,2 mm 2 m/s 737 mmHg 87%
    19:00 +16°C° 1,2 mm 2 m/s 736 mmHg 91%
    20:00 +15°C° 0,9 mm 2 m/s 737 mmHg 92%
    21:00 +14°C° 0,9 mm 3 m/s 737 mmHg 93%
    22:00 +13°C° 0,9 mm 3 m/s 737 mmHg 95%
    23:00 +13°C° 1,2 mm 3 m/s 737 mmHg 95%
    Mostrar mais